Lid_Strength_Index
-0 -0 0 1 2 2 2 2 2 2 2 1 1 1 2 2 3 4 5 3 3 1 2 3 3 3 4 5 5 6 7 8 8 8 8 7 7 5 5 6 5 5 5 4 3
1 2 2 2 2 3 3 3 2 2 2 1 1 1 2 2 4 5 2 1 1 1 4 4 5 4 5 6 5 6 7 7 7 7 7 6 6 6 6 6 6 5 4 3 3
2 3 3 3 3 3 3 3 2 2 2 1 1 1 2 3 6 5 1 0 0 2 4 4 4 5 7 6 6 7 8 7 7 6 6 6 5 5 5 6 5 5 5 4 4
3 3 3 3 3 3 3 3 3 3 2 2 2 2 3 4 11 4 1 1 1 3 3 4 5 7 8 8 7 8 7 7 6 6 6 6 5 6 5 5 4 4 4 4 2
4 3 4 4 4 4 4 4 4 4 2 3 3 3 4 9 9 4 3 2 4 4 5 6 6 6 8 8 7 8 7 6 6 5 5 5 6 5 5 5 4 4 4 3 3
5 5 5 5 4 4 4 3 4 4 3 3 4 4 7 11 5 4 4 4 4 4 5 5 6 6 7 8 8 7 7 6 5 5 5 6 6 6 5 4 5 5 4 3 3
5 5 5 5 4 4 4 4 4 4 3 4 4 5 7 9 5 4 5 5 4 4 6 5 5 6 6 8 7 7 7 6 6 6 6 6 7 7 5 5 5 5 4 4 4
5 6 6 5 5 5 4 4 4 4 4 4 5 6 10 5 4 5 5 5 5 5 4 4 4 5 6 6 7 8 7 9 7 7 7 6 9 6 5 6 6 5 4 5 5
5 6 6 5 5 5 5 5 4 4 4 5 6 7 10 6 6 4 4 5 4 4 4 4 4 6 6 8 9 8 11 10 9 7 8 8 9 7 5 6 6 6 6 6 6
5 6 6 6 5 5 5 6 5 5 5 5 6 9 9 10 5 4 3 3 5 5 6 6 6 8 8 9 13 11 11 10 10 8 9 10 10 8 7 7 6 6 6 7 7
5 6 6 6 5 5 6 6 9 9 7 10 10 10 9 6 5 5 3 3 4 6 9 7 9 10 9 9 9 10 11 11 9 9 10 10 9 8 7 6 6 6 6 7 8
5 6 6 6 5 5 5 9 9 8 12 9 9 9 8 6 9 6 3 5 6 10 7 9 10 8 8 8 9 10 11 11 10 10 10 10 10 8 8 7 7 6 6 7 7
5 5 6 6 6 5 7 9 5 6 11 12 9 10 9 8 10 9 5 6 8 9 9 10 9 8 8 9 10 10 11 11 12 10 9 10 10 10 9 7 7 7 6 6 6
5 5 6 6 8 6 7 5 5 5 13 13 11 8 7 7 10 6 7 8 9 10 9 10 8 9 10 11 10 12 9 10 11 11 13 10 15 10 9 8 8 7 7 6 6
5 4 5 6 6 7 6 4 4 6 18 12 10 5 6 9 7 7 6 8 11 10 10 11 10 10 10 10 9 11 9 10 10 11 11 11 13 11 9 9 8 7 6 6 6
4 4 5 5 5 5 4 4 4 13 19 13 9 9 9 8 8 7 8 6 7 10 9 9 7 8 9 8 8 8 9 9 9 10 14 12 12 11 10 9 7 6 6 5 5
3 3 4 4 7 4 3 5 14 17 13 14 11 9 9 10 8 8 9 9 10 12 12 10 9 8 7 9 7 8 10 13 14 15 15 11 12 11 8 7 6 6 6 4 4
2 3 4 4 3 3 3 10 17 15 14 12 11 9 10 9 9 8 8 9 8 9 9 11 13 8 6 8 9 9 10 13 17 16 14 11 14 10 7 6 5 5 5 4 4
2 2 4 3 3 4 6 14 16 14 12 13 12 13 12 9 9 9 9 9 7 7 11 11 11 7 7 7 7 10 12 8 12 11 14 12 10 9 7 7 7 6 5 5 5
2 4 5 3 2 5 9 14 13 11 10 11 14 12 14 12 11 10 9 8 8 7 6 9 12 8 7 6 7 8 7 13 12 18 17 13 12 11 10 9 8 7 6 5 5
3 6 3 2 3 8 13 13 12 9 9 11 12 12 11 12 11 11 11 7 7 7 6 7 10 10 8 9 9 10 11 10 10 12 17 17 13 8 8 7 7 6 6 5 5
5 9 3 1 9 9 12 11 9 10 8 9 9 10 11 10 11 11 10 8 6 7 10 8 9 12 10 7 7 8 9 9 15 15 15 15 14 7 7 6 6 6 5 4 5
7 7 2 2 11 11 10 10 9 10 9 9 10 8 8 10 12 10 9 6 5 6 8 7 9 13 12 9 8 10 9 9 11 13 15 17 14 7 7 7 6 6 5 5 6
7 10 7 6 5 8 10 10 10 8 8 7 8 7 8 9 7 9 8 7 6 6 6 6 10 11 13 11 9 12 10 9 11 15 14 13 11 8 8 7 7 6 5 6 7
6 8 6 11 9 7 7 9 10 10 8 7 8 8 8 10 9 9 7 7 6 5 6 7 12 10 9 9 9 10 10 10 11 11 14 12 11 8 7 6 6 5 5 7 9
8 7 6 6 7 8 7 9 9 9 8 9 9 8 7 9 8 9 8 8 8 6 7 7 12 10 11 9 9 11 9 9 9 10 10 10 10 6 6 6 6 6 7 8 10
5 2 4 7 8 9 9 8 8 7 7 7 7 7 8 7 6 5 5 5 6 8 8 9 11 12 15 10 11 14 10 9 9 8 9 13 9 6 7 7 7 7 8 9 11